Wind_Speed
19 18 18 18 18 19 19 19 19 18 18 18 19 18 17 17 18 18 17 17 17 17 18 18 18 18 18 18 18 19 19 19 19 19 19 19 20 20 20 21 21 21 21
21 21 21 21 21 21 21 21 21 21 21 21 21 20 19 20 20 20 20 19 19 19 20 20 20 21 21 21 21 21 22 21 21 21 21 21 22 22 22 23 23 23 23
23 24 24 23 24 25 24 24 24 24 23 23 23 22 23 23 22 22 22 22 23 23 23 23 23 23 23 23 23 23 24 24 24 24 23 23 23 23 24 24 23 23 23
25 25 26 26 27 27 27 27 27 26 26 25 25 25 25 24 24 24 24 25 26 26 26 26 25 25 25 25 25 26 26 26 26 26 26 25 25 25 25 25 24 24 24
28 27 28 28 28 29 30 30 30 29 28 27 27 26 26 26 27 27 27 27 27 27 27 27 27 27 27 28 28 28 28 28 28 28 27 27 27 27 27 26 26 26 26
30 30 30 30 30 31 31 31 31 31 29 28 28 28 28 28 29 29 30 29 29 29 29 29 29 29 30 29 29 28 29 29 30 30 29 29 28 29 29 28 28 28 28
31 32 32 32 33 32 33 33 32 31 30 28 28 29 30 31 31 31 31 31 31 31 31 31 31 31 32 32 31 31 32 32 32 32 31 32 31 31 31 31 31 31 31
32 33 34 34 35 34 34 33 33 33 32 31 30 30 31 32 32 32 32 33 32 32 32 32 32 33 33 34 34 34 33 33 33 33 33 34 34 33 33 33 33 33 33
34 34 35 36 36 36 35 35 35 34 34 33 32 32 32 33 33 33 34 33 34 34 34 34 34 35 35 35 35 34 34 34 34 35 35 35 34 35 35 35 35 35 35
36 36 36 37 37 37 37 37 37 37 36 34 33 33 33 32 33 34 35 35 35 35 36 35 36 36 36 36 36 35 35 35 36 36 36 36 36 36 36 36 36 36 36
37 37 36 36 37 37 37 38 38 37 36 35 35 35 34 34 34 35 35 35 36 37 37 35 36 37 37 37 38 38 37 37 38 38 38 38 37 37 37 37 36 37 36
37 36 36 37 36 36 37 37 37 37 36 36 36 36 36 35 36 36 35 36 37 37 37 37 37 37 38 38 38 39 39 39 39 39 38 38 38 37 37 37 37 36 36
37 38 38 38 37 37 38 37 37 37 37 37 36 36 36 37 37 37 37 37 37 38 38 38 38 38 38 37 38 38 39 39 39 39 38 38 38 38 36 36 36 36 36
38 38 38 38 38 38 39 39 38 38 38 37 37 38 38 38 37 36 36 37 38 38 38 37 38 37 38 38 38 38 37 37 38 38 37 36 37 37 36 35 36 36 36
38 38 38 38 38 38 37 37 38 38 38 38 38 38 38 37 37 37 37 38 38 38 38 38 38 38 38 37 36 36 36 35 35 36 36 36 36 36 36 36 36 36 36
37 37 37 37 37 38 37 37 37 37 37 37 37 37 38 38 38 38 38 39 39 38 38 38 38 38 38 37 36 36 35 35 35 35 35 35 35 35 35 34 35 36 36
37 37 37 37 36 36 37 37 37 36 36 36 36 37 37 37 38 38 39 39 39 38 38 38 38 37 36 35 35 35 35 35 35 35 34 34 34 35 35 34 34 35 35
36 36 35 35 35 36 36 36 36 37 37 36 36 37 37 37 36 37 38 38 38 38 38 37 36 35 34 34 34 35 35 35 35 35 35 34 34 34 35 35 34 34 34
36 35 35 35 34 34 34 35 36 36 37 37 36 36 37 38 38 37 38 38 37 37 36 35 34 34 34 34 34 34 35 35 35 34 34 34 34 35 34 34 33 33 34
35 35 35 35 35 34 33 34 34 35 35 36 36 36 36 37 37 38 37 36 35 35 34 34 34 34 34 33 34 34 34 34 34 34 33 34 34 34 34 34 33 33 33
33 33 34 33 33 34 33 34 34 35 36 36 36 36 36 36 36 36 36 35 34 34 34 34 34 34 34 34 33 33 33 33 33 33 33 34 34 35 34 34 33 33 32
31 31 31 31 32 32 31 31 32 32 32 32 32 32 33 34 35 35 35 33 33 34 34 35 35 35 34 34 34 34 34 34 34 33 33 33 33 33 34 34 33 32 32
31 30 30 30 30 29 30 30 31 31 31 30 31 31 32 32 33 34 34 34 34 34 34 34 34 33 33 34 33 32 32 32 32 32 32 32 32 33 33 32 32 31 30
30 30 30 30 30 30 30 30 30 30 30 30 30 30 31 31 32 32 33 33 33 32 32 32 33 33 33 32 31 31 31 32 31 31 30 30 31 31 31 31 30 30 29
30 30 30 30 30 30 30 30 30 29 29 29 29 29 30 30 29 30 30 31 30 30 30 31 31 31 30 30 30 30 30 30 30 29 29 29 29 29 29 29 30 30 29
29 29 28 28 29 29 29 29 29 29 29 29 29 30 29 29 29 29 30 30 30 29 29 29 30 30 30 30 29 29 29 29 29 29 29 28 28 28 28 29 29 29 29
Wind_Direction
274 274 276 278 279 280 281 282 285 285 285 287 289 291 290 289 290 290 292 295 293 291 292 292 292 290 288 288 291 294 295 296 298 297 295 294 294 293 294 295 294 291 290
271 272 273 277 280 281 281 282 283 282 282 283 285 286 286 286 290 291 291 292 292 291 288 289 288 287 287 286 287 289 291 292 293 294 293 293 292 291 292 293 295 291 287
270 270 272 275 277 279 279 280 280 280 279 280 282 282 284 286 287 289 289 288 289 290 288 287 286 284 285 285 285 286 287 288 290 291 292 292 293 293 292 292 293 290 288
269 269 271 274 275 275 277 279 279 280 278 277 279 280 281 283 287 289 289 288 288 289 287 286 286 283 283 284 284 285 286 288 288 289 291 292 291 292 292 292 291 289 289
269 270 272 273 274 274 276 278 277 277 276 275 277 279 281 283 285 285 285 286 286 288 288 287 285 284 283 283 283 283 285 287 287 288 289 289 290 290 291 291 288 286 287
269 270 271 272 273 274 275 277 276 275 275 275 276 278 280 282 282 283 283 283 284 285 286 285 284 283 282 283 282 282 283 285 287 287 287 287 287 288 288 288 287 286 286
269 270 271 271 272 274 275 276 276 275 274 277 277 278 280 281 281 280 280 282 282 282 282 282 282 283 283 282 282 281 280 282 284 284 285 285 285 285 285 285 285 285 285
269 269 270 270 271 272 273 272 275 276 276 277 278 280 281 281 280 280 280 281 281 281 281 281 282 282 284 283 282 282 281 280 281 283 284 283 283 283 284 284 284 285 285
269 270 270 271 270 270 270 271 273 275 275 276 277 279 282 282 279 279 280 281 280 280 281 281 282 284 284 284 283 282 281 280 281 283 284 284 283 282 282 282 283 284 286
268 269 270 271 270 270 269 271 272 273 274 276 277 279 280 280 280 280 281 281 282 282 283 283 283 284 285 283 283 281 280 280 281 282 282 283 282 282 282 282 282 283 284
268 269 271 272 271 269 269 271 272 272 272 274 275 277 278 278 278 279 280 281 284 283 283 282 282 283 284 283 282 281 280 280 280 280 280 281 282 282 282 283 283 283 283
267 269 270 271 271 270 270 271 272 273 273 273 273 274 276 277 278 279 280 282 283 283 282 282 281 281 282 283 283 282 281 279 279 279 280 281 282 282 281 281 281 282 282
267 268 268 269 269 269 270 271 273 273 273 273 274 274 275 276 276 278 279 281 282 283 283 282 282 282 282 283 285 284 282 280 279 279 280 281 281 282 281 280 279 279 278
268 268 268 268 268 269 268 269 271 271 273 274 274 274 274 274 276 277 278 281 282 282 283 283 283 282 283 285 286 285 284 282 281 280 280 280 280 281 279 280 280 280 279
268 268 268 269 270 270 270 270 272 272 272 273 274 274 275 275 276 277 278 279 281 282 283 283 282 282 284 285 285 284 282 281 282 281 281 280 280 280 279 279 280 280 279
268 268 268 269 270 271 271 270 271 272 273 275 275 276 276 276 276 277 278 280 281 282 282 282 282 283 283 283 283 284 284 284 283 283 283 283 282 280 280 280 280 280 280
269 269 269 270 271 271 272 271 271 272 273 275 276 276 276 277 277 277 278 280 280 280 281 282 282 283 283 282 282 283 284 284 283 282 282 283 282 281 280 280 280 281 280
269 268 269 271 272 272 272 273 273 273 273 274 274 275 275 277 278 279 280 280 280 280 281 281 281 282 282 281 281 282 283 283 283 282 282 282 282 282 281 280 280 281 281
267 268 269 272 273 274 274 274 274 275 275 274 274 274 275 276 278 279 279 280 280 279 279 279 280 281 281 281 282 282 282 282 282 282 281 281 282 282 281 280 279 279 279
265 267 269 271 272 273 274 275 277 276 276 275 275 275 275 276 277 278 279 279 279 278 277 278 279 280 281 281 282 282 282 282 282 281 281 281 282 281 281 281 279 278 278
266 266 268 270 272 273 275 277 278 277 277 277 276 276 277 277 276 277 278 278 276 276 276 277 278 279 280 281 282 282 282 282 282 281 282 281 280 280 280 280 278 277 276
268 269 269 271 273 274 276 278 279 280 279 278 278 278 277 277 277 276 277 277 276 275 276 277 279 280 280 280 281 282 282 282 281 281 283 283 282 280 278 278 278 276 276
269 269 270 272 273 275 279 280 281 282 281 280 279 279 277 277 277 276 276 278 278 277 278 277 277 278 279 280 280 280 282 282 281 282 283 283 283 282 280 279 277 276 276
267 269 269 272 274 276 278 279 281 283 282 281 280 279 279 280 280 278 277 278 279 279 279 279 279 279 279 279 279 280 282 283 284 284 284 284 283 283 281 280 279 277 274
267 269 270 272 274 275 277 279 281 281 282 282 280 279 279 281 281 280 280 279 278 277 278 279 279 279 279 280 280 280 282 283 283 284 286 286 284 282 282 281 281 278 276
267 269 271 273 276 277 278 280 281 281 281 282 281 281 281 282 282 281 281 281 278 277 278 278 278 278 279 278 277 279 281 283 284 284 284 285 283 282 283 283 281 279 277
Height
5886 5886 5886 5887 5887 5887 5887 5887 5887 5886 5886 5885 5885 5884 5884 5883 5882 5882 5881 5880 5880 5879 5878 5877 5877 5876 5875 5875 5874 5874 5873 5872 5871 5870 5869 5868 5867 5866 5865 5864 5863 5862 5861
5880 5881 5881 5882 5882 5882 5882 5882 5881 5881 5881 5880 5880 5879 5879 5878 5878 5877 5876 5875 5875 5874 5873 5872 5872 5871 5870 5870 5869 5869 5868 5867 5866 5865 5864 5863 5862 5861 5859 5858 5857 5856 5856
5874 5875 5875 5876 5876 5876 5876 5876 5875 5875 5875 5874 5874 5874 5873 5873 5872 5871 5871 5870 5869 5868 5867 5866 5865 5865 5864 5864 5863 5863 5862 5861 5860 5859 5858 5857 5856 5855 5854 5853 5851 5850 5850
5868 5868 5869 5869 5869 5869 5869 5869 5869 5868 5868 5868 5868 5867 5867 5866 5866 5865 5864 5864 5863 5862 5861 5860 5859 5859 5858 5858 5857 5856 5855 5854 5853 5853 5852 5851 5850 5848 5847 5846 5845 5844 5843
5860 5861 5862 5862 5862 5862 5862 5862 5861 5861 5861 5861 5861 5860 5860 5859 5859 5859 5858 5857 5856 5855 5854 5854 5853 5852 5851 5850 5850 5849 5848 5847 5846 5846 5845 5844 5843 5842 5841 5840 5838 5837 5836
5852 5853 5853 5854 5854 5854 5853 5853 5853 5853 5853 5853 5853 5853 5853 5852 5852 5851 5851 5850 5849 5848 5847 5846 5846 5845 5843 5842 5842 5841 5840 5839 5839 5838 5837 5836 5836 5834 5833 5832 5831 5830 5829
5844 5844 5845 5845 5845 5845 5845 5845 5844 5844 5845 5844 5844 5845 5845 5844 5844 5843 5842 5842 5841 5841 5839 5838 5838 5837 5835 5834 5834 5833 5832 5831 5830 5830 5829 5828 5827 5826 5825 5824 5822 5821 5820
5835 5835 5836 5836 5836 5836 5836 5836 5836 5836 5837 5836 5836 5836 5836 5836 5835 5834 5834 5833 5832 5832 5830 5829 5828 5828 5826 5825 5824 5823 5823 5822 5821 5820 5820 5819 5818 5817 5815 5814 5813 5812 5811
5826 5826 5826 5826 5826 5826 5826 5827 5827 5827 5827 5827 5828 5827 5827 5827 5826 5825 5825 5824 5823 5822 5821 5820 5819 5818 5817 5815 5814 5814 5813 5812 5811 5810 5810 5809 5808 5807 5805 5804 5803 5802 5802
5817 5817 5816 5816 5816 5816 5817 5818 5818 5818 5818 5818 5819 5819 5818 5818 5817 5816 5815 5815 5814 5813 5812 5810 5809 5808 5807 5805 5804 5803 5803 5802 5801 5800 5799 5798 5797 5796 5795 5794 5793 5791 5790
5806 5806 5806 5806 5806 5806 5806 5807 5808 5808 5808 5809 5809 5809 5808 5808 5808 5807 5806 5805 5804 5803 5802 5801 5800 5798 5797 5795 5794 5793 5792 5791 5790 5789 5788 5788 5787 5786 5784 5783 5781 5780 5779
5796 5796 5796 5796 5796 5796 5796 5797 5797 5797 5797 5798 5798 5799 5798 5798 5798 5797 5796 5795 5794 5793 5792 5791 5789 5788 5786 5784 5783 5782 5781 5779 5779 5778 5777 5777 5776 5775 5774 5772 5771 5769 5768
5785 5786 5786 5786 5786 5786 5786 5787 5787 5787 5787 5787 5787 5788 5788 5788 5787 5787 5786 5785 5783 5782 5781 5780 5779 5777 5775 5774 5772 5770 5769 5767 5766 5766 5766 5766 5765 5763 5762 5761 5759 5758 5757
5775 5775 5775 5776 5776 5776 5776 5775 5775 5776 5776 5777 5777 5777 5777 5777 5776 5775 5775 5774 5772 5771 5770 5769 5768 5766 5765 5763 5761 5759 5757 5756 5755 5755 5754 5754 5753 5752 5751 5750 5749 5748 5747
5764 5765 5765 5765 5765 5765 5764 5765 5765 5765 5765 5766 5766 5766 5766 5766 5766 5765 5764 5763 5761 5760 5759 5758 5757 5756 5754 5753 5751 5749 5747 5746 5745 5744 5743 5743 5742 5741 5740 5739 5738 5737 5736
5754 5754 5754 5755 5754 5754 5754 5755 5755 5755 5755 5755 5755 5755 5755 5754 5754 5753 5752 5751 5750 5749 5747 5747 5746 5744 5743 5742 5741 5739 5738 5736 5735 5734 5733 5732 5731 5730 5729 5728 5727 5726 5725
5742 5743 5743 5744 5744 5744 5744 5744 5744 5745 5745 5745 5744 5744 5744 5743 5743 5742 5741 5739 5738 5737 5736 5735 5734 5733 5732 5731 5730 5729 5728 5726 5725 5723 5722 5721 5720 5719 5718 5717 5717 5715 5714
5732 5732 5733 5733 5733 5734 5734 5733 5733 5733 5734 5733 5734 5733 5733 5732 5732 5731 5729 5728 5726 5726 5725 5724 5723 5722 5721 5720 5719 5718 5717 5716 5714 5713 5712 5710 5709 5708 5707 5707 5706 5705 5704
5722 5723 5723 5723 5724 5724 5723 5723 5723 5722 5722 5722 5722 5722 5721 5721 5720 5719 5718 5716 5715 5715 5714 5713 5712 5711 5711 5710 5709 5708 5706 5705 5704 5702 5701 5700 5698 5697 5696 5696 5695 5694 5693
5712 5713 5713 5713 5714 5714 5713 5713 5711 5711 5711 5710 5710 5710 5710 5709 5708 5708 5707 5706 5705 5704 5703 5703 5702 5701 5700 5699 5698 5697 5695 5694 5693 5691 5690 5689 5688 5686 5685 5685 5684 5683 5682
5702 5703 5703 5703 5704 5704 5703 5702 5701 5700 5699 5699 5698 5698 5698 5697 5697 5696 5696 5695 5694 5694 5693 5692 5691 5691 5690 5688 5687 5686 5684 5683 5682 5681 5680 5678 5677 5676 5675 5674 5673 5672 5672
5692 5693 5694 5695 5695 5694 5693 5692 5691 5690 5689 5688 5687 5687 5686 5686 5686 5685 5685 5684 5684 5683 5682 5681 5680 5680 5679 5678 5676 5675 5674 5673 5671 5670 5669 5668 5666 5665 5664 5663 5662 5662 5662
5685 5685 5686 5685 5685 5685 5684 5683 5682 5681 5680 5679 5678 5677 5677 5676 5675 5675 5675 5674 5673 5672 5671 5670 5669 5668 5667 5666 5665 5664 5663 5662 5661 5660 5659 5658 5656 5655 5654 5653 5653 5652 5652
5676 5676 5676 5676 5676 5676 5675 5674 5673 5672 5671 5670 5669 5668 5667 5666 5666 5665 5664 5663 5662 5661 5660 5659 5658 5657 5656 5655 5654 5654 5653 5652 5651 5650 5649 5648 5646 5645 5644 5644 5643 5642 5642
5667 5668 5668 5667 5667 5667 5666 5665 5664 5663 5662 5661 5660 5659 5658 5657 5656 5655 5654 5653 5652 5651 5650 5649 5648 5647 5646 5645 5645 5644 5643 5642 5641 5640 5639 5638 5637 5636 5635 5634 5633 5633 5633
5659 5659 5659 5659 5658 5658 5657 5656 5655 5654 5653 5652 5651 5650 5648 5647 5646 5645 5644 5643 5642 5641 5640 5639 5638 5637 5636 5636 5635 5634 5634 5633 5632 5631 5630 5629 5628 5627 5626 5625 5624 5624 5623